User: anonymous   Login
Location: Belvedere Heights
(33.9836°N, 117.3109°W)
Time: 19:16:23
(UTC+00:00)
Language:

BUGSAT 1 - Orbit

View from above orbital plane
View from above orbital plane
View from above satellite
View from above satellite

Ground track
Ground track

The orbit data is extracted from the following two-line orbital elements,

1 40014U 14033E   24146.84898439  .00006849  00000-0  49743-3 0  9997
2 40014  98.1273 187.3226 0035334 206.4458 153.4964 15.03723878542295
Epoch (UTC): 25 May 2024 20:22:32
Eccentricity: 0.0035334
inclination: 98.1273°
perigee height: 531 km
apogee height: 580 km
right ascension of ascending node: 187.3226°
argument of perigee: 206.4458°
revolutions per day: 15.03723878
mean anomaly at epoch: 153.4964°
orbit number at epoch: 54229

The dashed part of the orbit path shows where the satellite is in the earth's shadow,  

DLR